Theta_e
324 324 323 323 322 321 321 320 319 319 318 317 317 316 316 316 316 316 316 315 315 314 314 314 313 312 311 311 311 310 310 310 310 310 311 312 312 312 312 312 312 311
323 323 322 321 320 319 319 319 319 318 317 316 316 315 314 314 313 313 312 311 311 311 311 311 311 311 311 312 311 310 310 308 307 307 307 307 307 307 307 307 307 307
320 320 319 318 318 318 319 318 317 315 314 313 312 311 310 309 309 308 308 308 308 307 307 307 307 308 308 309 309 308 308 307 305 304 304 303 304 304 304 304 305 305
317 317 317 317 317 316 315 314 312 310 310 309 308 307 307 307 306 306 306 305 306 305 305 305 305 305 305 305 305 305 304 303 303 302 300 300 300 299 299 300 300 300
317 317 316 315 313 312 310 309 308 308 307 307 306 306 306 306 305 305 305 304 304 303 302 302 301 301 300 300 299 298 298 298 297 296 295 295 295 294 294 295 295 294
314 313 312 310 309 308 308 307 306 306 306 306 305 305 305 305 304 303 302 300 299 297 296 296 295 294 294 294 294 293 293 293 293 292 292 292 292 292 292 292 292 292
310 309 308 307 306 306 306 306 305 306 305 305 304 303 302 301 299 298 296 295 294 293 293 293 293 293 292 292 292 292 292 291 291 291 291 291 291 291 291 291 291 291
307 306 306 306 306 306 306 305 305 304 303 301 299 298 296 295 294 293 293 293 293 293 293 292 292 292 292 292 292 292 291 291 291 291 290 291 291 291 290 291 291 291
305 305 305 305 305 305 304 303 301 299 297 296 294 293 293 293 293 293 293 293 292 292 292 292 292 292 291 291 291 291 291 290 290 290 290 290 290 290 290 290 290 291
304 305 305 304 303 301 299 297 295 294 293 293 293 293 293 292 292 292 292 292 292 292 292 292 292 291 291 291 290 290 290 290 290 290 290 290 290 290 290 290 290 290
304 303 301 299 297 296 294 293 293 293 293 292 292 292 292 292 292 292 292 292 292 292 291 291 291 291 291 290 290 290 290 290 290 290 290 290 290 289 289 289 289 290
299 297 296 294 293 293 293 292 292 292 292 292 292 292 292 292 292 292 292 292 291 291 291 291 290 290 290 290 290 289 289 289 289 289 289 289 289 289 289 289 289 288
294 293 293 293 293 292 292 292 292 292 292 291 291 291 291 291 291 291 291 291 291 291 291 290 290 290 290 290 290 289 289 289 289 289 288 288 288 288 288 288 288 288
292 292 292 292 292 292 292 292 291 291 291 291 291 291 291 291 291 291 290 290 290 290 290 290 290 290 290 290 290 289 289 288 288 288 288 288 288 288 288 288 288 288
292 292 292 292 292 291 291 291 291 291 291 291 291 291 291 290 290 290 290 290 290 290 290 290 290 290 290 289 289 288 288 288 288 288 288 288 288 288 288 288 288 288
292 291 291 291 291 291 291 291 291 291 291 290 290 290 290 290 290 290 290 290 290 290 290 290 290 290 289 289 288 288 288 288 288 288 288 287 287 287 287 287 287 287
291 291 291 291 291 291 290 290 290 290 290 290 290 290 289 290 290 290 290 290 290 290 289 289 289 289 289 289 288 288 287 287 287 287 287 287 287 287 287 287 286 286
290 291 291 290 290 290 290 290 290 290 290 290 290 289 289 290 289 289 289 289 289 289 289 289 288 288 288 288 288 288 287 286 286 286 286 286 286 286 286 286 286 286
290 290 290 290 290 290 290 289 289 289 289 289 289 289 289 289 289 289 288 288 288 288 288 288 288 288 288 287 287 287 286 286 285 285 285 285 285 285 285 285 285 285
290 290 290 289 289 289 289 289 289 289 289 289 289 289 289 289 288 288 288 288 288 288 288 288 287 287 287 287 286 286 285 285 285 285 284 284 284 284 284 284 284 284
289 289 289 289 289 289 289 289 289 289 289 289 288 288 288 288 288 288 288 288 287 287 287 287 287 287 286 286 286 285 284 284 284 284 284 284 284 284 283 284 284 284
289 289 289 288 288 288 288 288 288 288 288 288 288 287 288 287 288 288 287 287 287 286 286 286 287 286 286 285 285 284 283 283 283 283 283 283 283 283 283 283 283 283
289 289 288 288 288 288 288 288 288 288 288 288 287 287 287 287 287 287 287 286 286 286 285 285 286 286 285 284 284 283 282 282 282 282 282 282 282 282 282 282 282 283
288 288 288 288 288 288 288 287 287 287 287 287 287 287 287 287 287 287 286 285 285 285 285 285 285 285 284 283 282 281 281 281 281 281 281 281 281 281 282 282 282 282
288 288 288 288 288 287 287 287 287 287 287 287 287 287 287 287 286 286 286 285 285 285 285 284 284 283 283 282 281 280 280 280 280 280 281 281 281 281 281 281 281 281
287 287 287 287 287 287 287 287 287 286 287 286 286 286 286 286 285 285 285 285 285 285 284 284 283 282 282 281 280 280 280 280 280 280 280 280 280 280 280 280 280 280
Wind_Speed
17 16 16 15 13 11 10 9 9 9 10 9 8 6 5 4 3 4 4 4 5 5 6 6 7 6 6 6 7 9 9 9 9 10 11 11 11 12 13 14 15 17
19 17 16 15 13 12 11 11 10 10 10 8 7 6 5 5 4 4 4 4 4 4 4 4 4 5 5 5 6 7 9 11 11 11 11 11 11 13 13 14 15 16
18 17 16 15 14 14 13 12 11 10 9 8 7 5 4 3 3 3 4 4 4 4 4 4 4 3 3 4 5 6 8 9 11 12 12 11 10 11 11 12 13 14
17 17 17 16 15 14 13 12 11 10 9 8 7 7 8 9 9 10 10 10 10 9 9 9 9 9 9 8 8 8 9 9 11 12 13 14 14 14 14 13 14 15
19 18 17 16 14 13 13 13 13 12 12 12 12 13 13 14 14 14 14 14 14 14 14 14 14 14 14 13 13 13 13 13 13 14 16 17 17 18 18 18 18 19
19 18 17 16 15 15 16 16 16 16 16 16 17 17 16 17 17 16 16 16 17 16 17 17 16 16 16 16 15 15 16 16 16 17 17 18 19 19 19 19 20 21
20 19 19 18 18 19 19 20 19 19 19 19 19 19 18 18 18 17 17 17 17 17 17 17 17 17 16 16 16 17 17 17 18 18 18 19 20 20 20 20 21 22
23 22 21 21 22 22 22 22 22 21 20 19 20 19 18 18 18 17 17 17 17 17 17 17 17 17 17 17 17 18 18 18 19 19 20 21 21 23 23 23 24 25
25 24 24 24 25 25 24 24 23 21 20 19 20 19 18 18 17 17 17 16 16 17 17 17 17 17 17 18 18 19 19 19 19 20 21 22 23 24 26 26 26 28
28 27 27 26 26 26 25 24 23 21 20 19 19 18 17 17 16 16 16 16 16 17 17 17 17 17 18 18 18 19 19 20 21 22 23 24 25 26 28 28 29 30
29 28 28 27 27 26 24 23 22 21 20 19 18 17 17 16 16 16 16 16 17 17 17 17 18 18 18 18 19 19 20 22 23 24 25 26 27 28 29 30 30 32
30 29 28 27 26 25 24 22 21 20 19 18 17 16 16 15 15 16 16 16 17 17 18 18 18 18 19 20 21 21 22 23 25 26 27 28 29 30 31 31 32 33
30 28 28 27 25 24 23 21 20 19 18 18 16 15 15 15 15 15 16 17 17 18 18 18 19 20 20 22 22 23 24 25 26 27 28 29 30 31 32 32 34 34
29 28 26 25 24 23 22 20 19 18 17 16 15 14 15 15 15 15 15 16 17 18 18 19 20 20 21 22 23 24 25 25 27 28 29 30 31 32 33 33 34 34
29 27 26 25 23 22 21 20 18 17 16 15 14 14 15 15 15 15 16 16 17 17 18 18 19 19 20 21 22 24 25 25 27 28 29 31 32 33 34 34 34 35
28 27 25 24 22 21 20 19 17 16 15 14 14 14 14 15 14 15 15 16 16 16 17 17 18 18 19 20 22 23 25 25 27 28 29 31 33 35 36 36 35 36
27 26 24 23 21 20 19 18 16 15 14 14 14 14 14 14 14 14 15 15 15 16 16 17 18 19 20 21 22 23 25 26 27 29 30 31 33 34 36 37 37 37
26 25 23 21 20 19 18 17 15 14 14 13 12 13 12 12 13 13 14 14 15 16 16 17 18 19 20 22 24 24 25 26 28 29 31 32 33 34 35 36 38 39
25 24 23 21 19 17 16 16 14 13 13 12 11 12 11 11 12 13 14 14 15 16 17 18 19 21 22 24 25 25 26 26 28 29 31 32 33 33 34 35 36 38
24 23 22 20 18 16 15 14 13 12 12 11 10 10 11 11 12 13 14 14 15 16 18 20 21 22 23 25 25 26 26 27 28 30 31 32 33 32 33 34 34 35
23 21 20 19 17 15 14 13 12 11 11 10 10 10 10 11 12 13 14 15 16 17 19 20 22 22 23 25 26 27 27 27 29 31 32 33 33 32 31 32 32 33
22 20 19 17 15 14 13 12 11 11 10 9 9 9 10 11 12 13 14 15 17 18 19 21 22 23 24 25 26 27 28 28 30 31 33 34 35 33 32 32 31 31
21 19 18 16 14 12 12 11 10 9 9 8 8 9 10 11 12 14 15 16 17 19 20 21 23 24 24 25 26 27 28 29 31 32 33 34 35 35 33 33 32 31
20 18 17 15 13 11 11 10 9 8 8 8 8 9 11 12 13 14 15 16 18 19 20 21 22 24 24 24 25 25 27 28 28 31 33 34 36 37 36 35 34 32
20 18 15 14 12 11 10 9 8 8 8 8 9 10 11 12 13 15 16 17 18 20 21 22 22 23 24 24 25 25 25 26 26 29 32 35 36 37 38 39 38 37
19 17 15 13 11 10 9 8 7 7 8 8 9 10 11 12 13 15 17 18 19 20 21 22 23 24 24 25 26 26 25 24 25 27 30 34 36 36 38 42 43 43
Wind_Direction
179 179 181 184 184 186 187 179 168 162 158 159 165 168 173 184 197 218 241 258 269 283 293 296 302 313 331 343 343 339 335 326 315 306 299 298 301 303 304 303 301 302
176 176 179 180 175 172 177 177 175 175 175 179 188 197 206 219 233 241 250 258 266 278 293 296 293 295 305 315 325 333 335 334 331 325 317 310 305 303 303 305 307 309
177 176 174 173 171 172 177 181 183 185 186 183 181 182 172 160 143 116 102 97 92 83 66 53 48 34 360 344 341 340 339 340 343 344 344 343 336 330 327 323 322 321
165 166 167 169 173 175 176 175 171 166 161 149 135 125 114 108 104 99 95 91 86 81 75 67 62 57 50 43 34 25 16 8 2 0 3 5 3 359 357 351 344 339
163 165 167 169 169 167 162 155 146 139 132 123 115 111 106 103 100 96 92 88 84 80 74 69 65 61 56 50 45 40 34 28 20 15 14 13 10 6 3 359 354 350
162 164 164 161 156 152 146 136 130 126 120 114 111 107 102 100 97 93 90 85 81 77 72 68 63 59 56 51 47 42 36 30 24 20 15 12 10 6 1 355 349 347
154 154 152 148 143 139 133 127 123 119 115 112 108 104 99 97 93 89 86 81 77 73 68 65 59 55 51 45 41 36 31 25 19 15 11 6 3 0 357 351 344 342
147 145 142 139 135 130 125 121 118 114 112 111 106 101 98 95 91 87 84 78 75 71 65 61 55 49 44 37 33 29 24 20 14 8 5 360 357 355 352 348 342 337
140 138 136 133 129 125 121 118 115 112 111 108 104 101 97 93 88 85 82 77 73 67 61 56 49 43 37 30 26 22 17 13 8 2 359 355 351 350 347 344 340 335
134 133 132 129 125 122 120 117 115 113 111 106 103 100 94 91 87 83 79 73 67 60 54 49 43 37 32 25 20 16 10 6 3 358 354 351 347 345 343 340 336 331
132 132 130 126 124 122 119 118 115 113 110 105 102 98 93 89 84 78 72 64 59 54 48 43 38 32 26 20 15 9 4 359 357 353 350 347 344 342 340 336 333 329
131 130 128 125 124 121 119 118 115 112 109 105 100 95 90 85 77 71 65 59 54 49 43 38 32 26 20 15 9 4 360 355 352 349 346 344 341 339 337 334 330 328
130 129 127 125 123 121 119 118 115 112 108 102 98 92 86 79 72 66 60 56 50 43 38 31 25 21 13 9 5 359 356 352 348 346 343 340 339 336 334 332 329 327
130 128 127 125 124 122 120 118 115 111 106 101 96 89 82 75 68 62 56 51 44 38 32 25 19 15 8 3 359 355 351 349 345 343 341 338 336 334 332 331 329 326
131 130 129 127 126 124 120 117 113 108 104 99 92 83 76 69 62 56 50 44 38 32 27 21 13 9 4 359 355 351 348 346 344 342 341 337 334 333 331 330 329 326
133 132 131 130 128 124 120 116 112 108 102 95 88 80 72 64 56 49 42 36 31 26 20 16 9 3 359 355 353 352 349 347 345 342 341 337 333 331 330 328 328 325
135 134 133 130 127 123 120 115 111 106 100 92 84 76 67 61 52 44 38 30 25 21 15 11 6 360 357 355 354 356 352 348 345 341 339 336 333 330 328 327 326 325
137 136 132 129 126 123 119 114 110 105 98 89 80 72 63 55 46 38 33 25 20 18 14 10 6 1 359 358 357 357 355 348 344 341 338 335 333 330 328 327 326 325
138 136 132 128 125 122 118 113 109 103 95 84 75 67 56 48 42 35 29 22 17 16 14 11 9 5 2 1 358 356 353 348 343 340 336 333 332 330 328 327 327 326
138 135 131 128 125 121 118 114 107 99 90 80 69 59 49 41 36 30 26 21 16 15 15 12 9 6 3 360 356 354 351 347 342 338 335 333 331 330 329 327 327 326
137 133 130 127 125 122 117 112 104 95 85 74 60 50 43 35 30 25 21 19 17 14 13 13 9 6 3 358 354 352 349 345 341 338 335 333 331 331 330 327 327 326
137 134 131 126 125 122 116 109 100 90 80 69 57 47 39 32 26 22 18 17 17 14 11 12 9 4 2 358 353 351 348 345 343 340 336 334 332 331 330 328 327 327
137 135 132 129 127 123 115 105 95 85 74 62 53 42 34 28 23 22 20 16 16 14 10 9 8 4 0 358 355 352 348 346 344 340 336 334 332 331 330 329 328 328
138 137 134 132 130 123 112 101 91 82 69 55 48 38 30 25 20 20 20 16 14 14 11 7 6 3 359 357 356 354 351 348 345 340 336 333 332 331 330 329 328 327
139 139 137 135 130 120 110 101 90 80 66 50 42 36 28 23 18 16 17 17 15 13 11 8 4 3 360 357 357 357 354 350 347 342 337 334 332 330 329 327 326 325
141 140 138 135 130 119 110 102 89 77 66 49 37 31 26 21 17 15 14 14 14 13 11 8 4 2 1 358 357 358 357 352 348 345 339 333 329 328 326 325 324 324